COSMOS 2288 (GLONASS)

Satellite information

Favourite Embed

Satellite Type and Status

PAYLOADIN ORBIT

Key statistics

Satellite COSMOS 2288 (GLONASS) at a glance.

Uptime

11228

Days in orbit

Revolutions

≈ 2.1

Per day

Orbit

MEO

Medium Earth Orbit

Inclination

65.4

Latest

Satellite identification and parameters

Extended collection of information and parameters for COSMOS 2288 (GLONASS).

Object identification

Identified? True

Debris? False

Object name: COSMOS 2288 (GLONASS)

International designator: 1994-050C

Object number (NORAD): 23205

Object ID (CCSDS): 23205

Country: COMMONWEALTH OF INDEPENDENT STATES (CIS)

Current information (Y/N): Y

RCS size: LARGE

Orbital parameters

Period: 675.734 minutes

Inclination: 65.4118 deg

SMA: 25508.062 km

Apoapsis: 19134.904 km

Periapsis: 19124.951 km

RAAN: 215.3476 deg

Eccentricy: 0.0001951

Argument of periapsis: 301.0159 deg

Mean anomaly: 87.8205 deg

Mean motion: 2.13101523 rev/day

Mean motion (dot): -0.00000034 rev/day2

B* drag term: 0.0 1/REarth

Two-line elements (TLE)

Creation date: May 7, 2025, 3:14 a.m.

Reference frame: TEME

Reference center: EARTH

Epoch: May 6, 2025, 8:59 a.m. UTC

TLE line 0: 0 COSMOS 2288 (GLONASS)

TLE line 1: 1 23205U 94050C 25126.37445256 -.00000034 00000-0 00000-0 0 9990

TLE line 2: 2 23205 65.4118 215.3476 0001951 301.0159 87.8205 2.13101523239161

Live tracking on map

Real-time ground track for satellite COSMOS 2288 (GLONASS).

In-orbit conjunctions

A list of the most updated potential collisions computed for object COSMOS 2288 (GLONASS).

Target Orbit TCA Probability of collision Miss distance Type
COSMOS 2294 (GLONASS) MEO 2025-05-10 20:30:51 TBA 2721.0 (m) PAYLOAD
COSMOS 2294 (GLONASS) MEO 2025-05-10 09:15:07 TBA 3213.0 (m) PAYLOAD
COSMOS 2294 (GLONASS) MEO 2025-05-09 21:59:23 TBA 4102.0 (m) PAYLOAD
COSMOS 2294 (GLONASS) MEO 2025-04-11 23:52:54 TBA 4420.0 (m) PAYLOAD
COSMOS 2294 (GLONASS) MEO 2025-04-11 12:37:10 TBA 3763.0 (m) PAYLOAD

Associated space launch

GLONASS navigation satellites

COSMOS 2288 (GLONASS) was lifted into orbit during the mission ‘Proton | Uragan 57 to 59’, on board a Proton space rocket.

The launch took place on Aug. 11, 1994, 3:27 p.m. from 81/23 (81L).

For more information about the launch, click the button.

Launch to space Proton | Uragan 57 to 59
Proton | Uragan 57 to 59

Agency: N/A

Status: Launch Successful

Launch date: Aug. 11, 1994, 3:27 p.m. UTC

Rocket: Proton

Launch pad: 81/23 (81L)

Location: Baikonur Cosmodrome, Republic of Kazakhstan

...

Latest news about this satellite

There are no fresh news available about this satellite. Check back as we update our databases every day.


Newsletter sign-up

Weekly statistics, charts and insights to help you stay on top of the space industry.